sat.trackr.live / text

‹ back to catalog

HULIANWANG JISHU SHIYAN*

NORAD 57288 · 2023-095A

PAYLOAD ACTIVE UNKNOWN

§ Identity

Operator
Country
PRC
Launch date
2023-07-09
Launch site
JSC
Launch vehicle
Mass (kg)
RCS (m²)

External: N2YO · Heavens-Above · Gunter

§ Orbital elements

Epoch: 2026-05-25T04:13:00.947424Z

Period
107.50 min
Inclination
86.5046°
Eccentricity
0.0015927
Mean motion
13.39540612 rev/d
Perigee alt
1,099.1 km
Apogee alt
1,122.9 km
Semi-major
7,489.1 km
B*
7.1665e-5
RAAN
12.7411°
Arg perigee
253.9426°
Mean anomaly
105.9963°
Rev number
14,067

§ Raw data

HULIANWANG JISHU SHIYAN*1 57288U 23095A   26145.17570541  .00000054  00000+0  71665-4 0  99942 57288  86.5046  12.7411 0015927 253.9426 105.9963 13.39540612140677

JSON: /api/v1/satellites/57288 · /tle

For live sub-satellite position, see the globe view (requires WebGL).

§ Visibility from observer

Set your observer location to see the next 7 days of passes ≥ 10°. The values pass through the URL so the page stays shareable.

No JS? Fill the form by hand. The geolocation button needs JavaScript.